Location: Kam�li
(14.6864°N, 3.1482°W)
Time: 15:50:17
(UTC+00:00)

CZ-2D R/B - Pass Details

Date: 29 October 2020
Orbit: 521 x 538 km, 97.4° (Epoch: 23 November)

Event Time Altitude Azimuth Distance (km) Brightness Sun altitude
Rises 18:47:16 0° 165° (SSE) 2,658 6.8 -15.5°
Reaches altitude 10° 18:49:22 10° 164° (SSE) 1,767 5.8 -16.0°
Maximum altitude 18:53:10 75° 79° (E) 547 3.1 -16.9°
Drops below altitude 10° 18:56:58 10° 353° (N) 1,760 5.9 -17.8°
Sets 18:59:03 0° 352° (N) 2,646 6.8 -18.3°
